Weather History for K2G4 - July, 2013

Change the Weather History Date:

Monday, July 22, 2013

  Actual Average (KMGW) Record (KMGW)
Temperature  
Mean Temperature 68 °F 73 °F  
Max Temperature 75 °F 83 °F 96 °F (2011)
Min Temperature 62 °F 63 °F 50 °F (1965)
Degree Days  
Heating Degree Days 0 0  
Month to date heating degree days 0  
Since 1 June heating degree days 31  
Since 1 July heating degree days 0  
Cooling Degree Days 4 8  
Month to date cooling degree days 176  
Year to date cooling degree days 405  
Since 1 June cooling degree days 338  
Growing Degree Days 18 (Base 50)    
Moisture  
Dew Point 68 °F    
Average Humidity 97    
Maximum Humidity 100    
Minimum Humidity 78    
Precipitation  
Precipitation 0.00 in 0.15 in 1.29 in (1958)
Month to date precipitation 3.38  
Year to date precipitation 24.68  
Sea Level Pressure  
Sea Level Pressure 29.98 in    
Wind  
Wind Speed 2 mph (SSE)    
Max Wind Speed 9 mph    
Max Gust Speed -    
Visibility 6 miles    
Events Fog    
T = Trace of Precipitation, MM = Missing Value Source: NWS Daily Summary

Daily Weather History Graph

Daily Weather History Graph

Search for Another Location

Airport or City:

Trip Planner

Search our weather history database for the weather conditions in past years. The results will help you decide how hot, cold, wet, or windy it might be!

Date:

Astronomy

Jul. 22, 2013 Rise Set
Actual Time 6:08 AM EDT 8:39 PM EDT
Civil Twilight 5:37 AM EDT 9:09 PM EDT
Nautical Twilight 4:58 AM EDT 9:48 PM EDT
Astronomical Twilight 4:15 AM EDT 10:30 PM EDT
Moon 8:24 PM EDT (7/22) 6:02 AM EDT (7/22)
Length of Visible Light 15h 32m
Length of Day
14h 30m
Full, 100% of the Moon is Illuminated
Jul 22
Full
Jul 22
Full
Jul 29
Last Quarter
Aug 6
New
Aug 14
First Quarter

Hourly Weather History & Observations

Time (EDT) Temp. Dew Point Humidity Pressure Visibility Wind Dir Wind Speed Gust Speed Precip Events Conditions
12:00 AM 68.0 °F 68.0 °F 100% 30.08 in 10.0 mi Calm Calm - N/A   Scattered Clouds
12:20 AM 68.0 °F 68.0 °F 100% 30.07 in 10.0 mi Calm Calm - N/A   Mostly Cloudy
12:40 AM 66.2 °F 66.2 °F 100% 30.07 in 10.0 mi Calm Calm - N/A   Mostly Cloudy
1:00 AM 66.2 °F 66.2 °F 100% 30.06 in 10.0 mi Calm Calm - N/A   Overcast
1:20 AM 66.2 °F 66.2 °F 100% 30.06 in 10.0 mi Calm Calm - N/A   Scattered Clouds
1:40 AM 64.4 °F 64.4 °F 100% 30.06 in 7.0 mi Calm Calm - N/A   Scattered Clouds
2:00 AM 64.4 °F 64.4 °F 100% 30.06 in 7.0 mi Calm Calm - N/A   Scattered Clouds
2:20 AM 64.4 °F - N/A% 30.05 in 7.0 mi Calm Calm - N/A   Mostly Cloudy
3:40 AM 64.4 °F - N/A% 30.02 in 5.0 mi Calm Calm - N/A   Haze
4:00 AM 64.4 °F - N/A% 30.02 in 4.0 mi Calm Calm - N/A   Haze
4:20 AM 64.4 °F - N/A% 30.01 in 5.0 mi Calm Calm - N/A   Haze
4:40 AM 64.4 °F - N/A% 30.02 in 4.0 mi Calm Calm - N/A   Haze
5:00 AM 64.4 °F - N/A% 30.02 in 5.0 mi Calm Calm - N/A   Haze
5:20 AM 64.4 °F - N/A% 30.02 in 0.5 mi South 3.5 mph - N/A Fog Fog
5:40 AM 62.6 °F - N/A% 30.02 in 0.2 mi Calm Calm - N/A Fog Fog
6:00 AM 62.6 °F - N/A% 30.02 in 0.2 mi South 3.5 mph - N/A Fog Fog
6:20 AM 64.4 °F - N/A% 30.02 in 0.2 mi Calm Calm - N/A Fog Fog
6:40 AM 64.4 °F - N/A% 30.02 in 4.0 mi Calm Calm - N/A   Haze
7:00 AM 64.4 °F - N/A% 30.03 in 5.0 mi Calm Calm - N/A   Haze
7:20 AM 66.2 °F - N/A% 30.03 in 4.0 mi Calm Calm - N/A   Haze
7:40 AM 66.2 °F - N/A% 30.03 in 3.0 mi South 3.5 mph - N/A   Mostly Cloudy
8:00 AM 64.4 °F - N/A% 30.03 in 0.2 mi South 3.5 mph - N/A Fog Fog
8:20 AM 66.2 °F - N/A% 30.03 in 0.8 mi Calm Calm - N/A   Overcast
8:40 AM 66.2 °F - N/A% 30.03 in 0.8 mi Calm Calm - N/A   Mostly Cloudy
9:00 AM 68.0 °F - N/A% 30.02 in 5.0 mi Calm Calm - N/A   Haze
9:20 AM 69.8 °F 69.8 °F 100% 30.02 in 10.0 mi SSE 4.6 mph - N/A   Scattered Clouds
9:40 AM 71.6 °F 71.6 °F 100% 30.03 in 10.0 mi South 4.6 mph - N/A   Scattered Clouds
10:00 AM 71.6 °F 71.6 °F 100% 30.03 in 10.0 mi SE 4.6 mph - N/A   Clear
10:20 AM 73.4 °F 69.8 °F 88% 30.03 in 10.0 mi ESE 5.8 mph - N/A   Mostly Cloudy
10:40 AM 75.2 °F 68.0 °F 78% 30.03 in 10.0 mi SSE 6.9 mph - N/A   Overcast
11:00 AM 73.4 °F 69.8 °F 88% 30.02 in 10.0 mi SE 8.1 mph - N/A   Mostly Cloudy
11:20 AM 73.4 °F 68.0 °F 83% 30.02 in 10.0 mi SE 8.1 mph - N/A   Scattered Clouds
11:40 AM 71.6 °F 68.0 °F 88% 30.02 in 10.0 mi ESE 5.8 mph - N/A   Mostly Cloudy
12:00 PM 68.0 °F 68.0 °F 100% 30.02 in 5.0 mi SE 5.8 mph - N/A   Mostly Cloudy
12:40 PM 66.2 °F 66.2 °F 100% 30.02 in 1.8 mi South 9.2 mph - N/A   Overcast
1:05 PM 68.0 °F - N/A% 30.01 in 3.0 mi SSE 6.9 mph - N/A   Overcast
1:25 PM 68.0 °F - N/A% 30.00 in 4.0 mi SSE 6.9 mph - N/A   Haze
1:45 PM 69.8 °F 69.8 °F 100% 29.99 in 7.0 mi SSE 6.9 mph - N/A   Overcast
2:05 PM 69.8 °F 69.8 °F 100% 29.98 in 10.0 mi SSE 8.1 mph - N/A   Overcast
2:25 PM 68.0 °F 68.0 °F 100% 29.97 in 5.0 mi SSE 5.8 mph - N/A   Overcast
2:45 PM 71.6 °F 71.6 °F 100% 29.96 in 10.0 mi South 5.8 mph - N/A   Mostly Cloudy
3:05 PM 73.4 °F 73.4 °F 100% 29.95 in 10.0 mi SSE 6.9 mph - N/A   Mostly Cloudy
3:25 PM 73.4 °F 71.6 °F 94% 29.95 in 10.0 mi SSE 6.9 mph - N/A   Mostly Cloudy
3:45 PM 73.4 °F 69.8 °F 88% 29.94 in 10.0 mi SE 3.5 mph - N/A   Mostly Cloudy
4:05 PM 66.2 °F 66.2 °F 100% 29.95 in 1.5 mi SSW 9.2 mph - N/A   Overcast
4:25 PM 64.4 °F 64.4 °F 100% 29.93 in 2.5 mi South 8.1 mph - N/A   Overcast
4:45 PM 66.2 °F 66.2 °F 100% 29.93 in 5.0 mi SSW 5.8 mph - N/A   Mostly Cloudy
5:05 PM 66.2 °F - N/A% 29.92 in 10.0 mi South 5.8 mph - N/A   Overcast
5:25 PM 68.0 °F 68.0 °F 100% 29.93 in 7.0 mi South 5.8 mph - N/A   Mostly Cloudy
5:45 PM 68.0 °F 68.0 °F 100% 29.92 in 10.0 mi South 4.6 mph - N/A   Scattered Clouds
6:05 PM 66.2 °F 66.2 °F 100% 29.91 in 1.5 mi SSE 6.9 mph - N/A   Overcast
6:25 PM 68.0 °F - N/A% 29.91 in 7.0 mi WNW 4.6 mph - N/A   Scattered Clouds
6:45 PM 68.0 °F - N/A% 29.91 in 7.0 mi Calm Calm - N/A   Mostly Cloudy
7:05 PM 68.0 °F - N/A% 29.91 in 7.0 mi Calm Calm - N/A   Mostly Cloudy
7:25 PM 68.0 °F - N/A% 29.92 in 7.0 mi Calm Calm - N/A   Mostly Cloudy
7:45 PM 68.0 °F - N/A% 29.91 in 7.0 mi NNE 3.5 mph - N/A   Mostly Cloudy
8:05 PM 68.0 °F - N/A% 29.91 in 1.8 mi Calm Calm - N/A   Overcast
8:25 PM 66.2 °F - N/A% 29.91 in 0.8 mi NNE 3.5 mph - N/A   Overcast
8:45 PM 66.2 °F - N/A% 29.92 in 2.0 mi Calm Calm - N/A   Overcast
9:05 PM 64.4 °F - N/A% 29.92 in 1.5 mi West 6.9 mph - N/A   Overcast
9:25 PM 64.4 °F - N/A% 29.92 in 3.0 mi SW 3.5 mph - N/A   Overcast
9:45 PM 64.4 °F - N/A% 29.91 in 5.0 mi Calm Calm - N/A   Haze
10:05 PM 64.4 °F - N/A% 29.91 in 5.0 mi Calm Calm - N/A   Haze
10:25 PM 64.4 °F - N/A% 29.91 in 5.0 mi Calm Calm - N/A   Haze
10:45 PM 64.4 °F - N/A% 29.91 in 5.0 mi Calm Calm - N/A   Haze
11:05 PM 64.4 °F - N/A% 29.91 in 4.0 mi Calm Calm - N/A   Haze
11:25 PM 64.4 °F - N/A% 29.91 in 2.5 mi Calm Calm - N/A   Overcast
11:45 PM 64.4 °F - N/A% 29.90 in 0.5 mi Calm Calm - N/A Fog Fog